Home > Weather > Kunduz > Past weeks

Flag for Afghanistan Past Weather in Kunduz, Afghanistan — Yesterday and Last 2 Weeks

Now
108 °F

Sunny.


Feels Like: 107 °F
Forecast: 79 / 108 °F
Wind: 2 mph from West

Location: Termez Airport

Current Time: Jul 26, 2016 at 6:41:50 PM

Latest Report: Jul 26, 2016 at 6:00 PM


Visibility: 10 mi

Pressure: 29.47 "Hg

Humidity: 18%

Dew Point: 55 °F

Location of KunduzLocation

Past Weather in Kunduz — Graph

°F

Kunduz Temperature Yesterday

Maximum temperature yesterday: 111 °F (at 2:30 PM)
Minimum temperature yesterday: 73 °F (at 3:00 AM)
Average temperature yesterday: 92 °F

High & Low Weather Summary for the Past Weeks

 TemperatureHumidityPressure
High113 °F (Jul 26, 2:00 PM)69% (Jul 24, 4:30 AM)29.83 "Hg (Jul 24, 4:30 AM)
Low68 °F (Jul 20, 5:00 AM)7% (Jul 20, 1:30 PM)29.47 "Hg (Jul 11, 5:30 PM)
Average90 °F27%29.62 "Hg
* Reported Jul 11 5:30 PM — Jul 26 5:30 PM, Kunduz, Weather by CustomWeather, © 2016

Note: Actual official high and low records may vary slightly from our data, if they occured in-between our weather recording intervals... More about our weather records

Advertising

Kunduz Weather History for the Previous 24 Hours

Scroll right to see more
 ConditionsComfort  
Time TempWeatherWind HumidityBarometerVisibility
5:30 PM
Tue, Jul 26
109 °FSunny.3 mph13%29.47 "Hg10 mi
5:00 PM111 °FSunny.1 mph12%29.47 "Hg10 mi
4:30 PM113 °FPassing clouds.3 mph9%29.50 "HgN/A
4:00 PM113 °FPassing clouds.3 mph8%29.50 "HgN/A
3:30 PM113 °FSunny.2 mph7%29.50 "Hg10 mi
3:00 PM113 °FSunny.2 mph9%29.53 "Hg10 mi
2:30 PM113 °FPassing clouds.3 mph8%29.53 "HgN/A
2:00 PM113 °FSunny.1 mph9%29.53 "Hg10 mi
1:30 PM111 °FSunny.2 mph8%29.56 "Hg10 mi
1:00 PM111 °FSunny.1 mph9%29.56 "Hg10 mi
12:30 PM109 °FSunny.2 mph10%29.59 "Hg10 mi
12:00 PM108 °FSunny.2 mph10%29.59 "Hg10 mi
11:30 AM106 °FSunny.2 mph12%29.59 "Hg10 mi
11:00 AM104 °FSunny.2 mph12%29.62 "Hg10 mi
10:30 AM102 °FPassing clouds.3 mph16%29.62 "HgN/A
10:00 AM100 °FPassing clouds.3 mph17%29.62 "HgN/A
9:30 AM97 °FPassing clouds.3 mph22%29.62 "HgN/A
9:00 AM93 °FSunny.5 mph24%29.62 "Hg10 mi
8:30 AM93 °FSunny.No wind30%29.62 "Hg10 mi
8:00 AM90 °FSunny.No wind33%29.62 "Hg10 mi
7:30 AM86 °FSunny.1 mph40%29.62 "Hg10 mi
7:00 AM82 °FPassing clouds.5 mph48%29.62 "HgN/A
6:30 AM81 °FSunny.2 mph54%29.59 "Hg10 mi
6:00 AM77 °FSunny.6 mph61%29.59 "Hg10 mi
5:30 AM75 °FSunny.7 mph61%29.59 "Hg10 mi
5:00 AM75 °FSunny.6 mph61%29.59 "Hg10 mi
4:30 AM77 °FClear.5 mph54%29.59 "Hg10 mi
4:00 AM77 °FClear.3 mph54%29.56 "Hg10 mi
3:30 AM79 °FClear.3 mph54%29.56 "Hg10 mi
3:00 AM75 °FClear.7 mph57%29.56 "Hg10 mi
2:30 AM79 °FClear.3 mph54%29.56 "Hg10 mi
1:30 AM82 °FClear.3 mph45%29.53 "Hg10 mi
12:30 AM84 °FClear.No wind40%29.56 "Hg10 mi
11:30 PM
Mon, Jul 25
82 °FClear.No wind51%29.56 "Hg10 mi
10:30 PM84 °FClear.No wind45%29.56 "Hg10 mi
10:00 PM86 °FClear.2 mph35%29.56 "Hg10 mi
9:30 PM88 °FClear.2 mph31%29.56 "Hg10 mi
9:00 PM90 °FClear.No wind31%29.56 "Hg10 mi
8:30 PM91 °FClear.No wind28%29.56 "Hg10 mi
8:00 PM95 °FClear.5 mph22%29.53 "Hg10 mi
7:30 PM97 °FClear.5 mph23%29.53 "Hg10 mi
7:00 PM97 °FSunny.7 mph25%29.53 "Hg10 mi
6:30 PM100 °FSunny.6 mph22%29.53 "Hg10 mi
6:00 PM106 °FSunny.2 mph15%29.53 "Hg10 mi
Weather by CustomWeather, © 2016

See weather overviewHow to use our weather pages